www.pogodaiklimat.ru

Погода и климат >> Архив погоды >> Австралия >> Южная Австралия >> Мумба


ПОГОДА в Мумбе

  • Прогноз погоды в Мумбе
  • Монитор погоды в Мумбе

АРХИВ ПОГОДЫ в Мумбе

Время (UTC), дата Ветер
(напр.,м/с)
 
Видим.   Явления Облачность Т
(С)
Тd
(С)
f
(%)
Тe
(С)
Тes
(С)
Комфортность P
(гПа)
Po
(гПа)
Тmin
(С)
Tmax
(С)
R
(мм)
R24
(мм)
S
(см)
04 17.07 С 2 н/о н/о +19.7 +6.8 43 +21 +21 комфорт 1023.4 1018.7
05 17.07 З 2 н/о н/о +19.6 +6.7 43 +21 +21 комфорт 1022.7 1018.0
06 17.07 З 3 н/о н/о +20.1 +6.5 41 +21 +21 комфорт 1022.3 1017.6
07 17.07 З 4 н/о н/о +19.8 +6.5 42 +21 +21 комфорт 1022.2 1017.5
08 17.07 ЮЗ 4 н/о н/о +18.3 +6.2 45 +18 +18 1022.4 1017.7
09 17.07 ЮЗ 3 н/о н/о +15.5 +5.1 50 +15 +15 1022.6 1017.9
10 17.07 ЮЗ 2 н/о н/о +14.5 +5.6 55 +14 +14 1023.0 1018.3
11 17.07 ЮЗ 1 н/о н/о +12.5 +5.0 60 +14 +14 1023.5 1018.8
12 17.07 штиль 0 н/о н/о +12.0 +4.7 61 +12 +12 1023.4 1018.7
13 17.07 штиль 0 н/о н/о +11.0 +4.7 65 +11 +11 1023.4 1018.7
14 17.07 штиль 0 н/о н/о +10.4 +4.8 68 +10 +10 1023.2 1018.5 +20.7
15 17.07 З 4 н/о н/о +10.5 +4.9 68 +8 +8 1023.0 1018.3
16 17.07 ЮЗ 2 н/о н/о +8.7 +3.9 72 +7 +7 1023.1 1018.4
17 17.07 ЮЗ 3 н/о н/о +8.2 +3.9 74 +6 +6 1023.0 1018.3
18 17.07 ЮЗ 2 н/о н/о +7.6 +3.5 75 +6 +6 1023.0 1018.3
19 17.07 ЮЗ 2 н/о н/о +6.6 +3.4 80 +5 +5 1022.7 1018.0
20 17.07 ЮЗ 3 н/о н/о +6.2 +2.8 79 +3 +3 1022.8 1018.1
21 17.07 Ю 3 н/о н/о +5.5 +2.8 83 +3 +3 1023.1 1018.4
22 17.07 Ю 3 н/о н/о +5.9 +2.7 80 +3 +3 1023.5 1018.8
23 17.07 Ю 4 н/о н/о +9.8 +3.8 66 +7 +7 1024.0 1019.3
00 18.07 ЮВ 5 н/о н/о +12.3 +3.8 56 +10 +10 1024.3 1019.6
01 18.07 ЮВ 4 н/о н/о +14.8 +4.2 49 +14 +14 1024.3 1019.6
02 18.07 ЮВ 4 н/о н/о +16.4 +4.4 45 +16 +16 1023.4 1018.7 +5.3
03 18.07 Ю 3 н/о н/о +17.7 +4.3 41 +18 +18 1022.7 1018.0
04 18.07 ЮЗ 4 н/о н/о +18.4 +4.6 40 +19 +19 1021.6 1016.9
05 18.07 ЮЗ 4 н/о н/о +19.0 +4.7 39 +19 +19 1021.2 1016.5
06 18.07 ЮЗ 4 н/о н/о +19.3 +3.9 36 +20 +20 1021.1 1016.4
07 18.07 ЮЗ 5 н/о н/о +18.8 +3.8 37 +19 +19 1021.2 1016.5
08 18.07 ЮЗ 4 н/о н/о +17.3 +3.6 40 +17 +17 1021.4 1016.7
09 18.07 ЮЗ 2 н/о н/о +14.7 +3.2 46 +15 +15 1021.8 1017.1
10 18.07 Ю 3 н/о н/о +14.1 +3.0 47 +14 +14 1022.0 1017.3
11 18.07 Ю 3 н/о н/о +13.2 +2.7 49 +12 +12 1022.3 1017.6
12 18.07 ЮВ 1 н/о н/о +11.3 +1.5 51 +11 +11 1022.6 1017.9
13 18.07 штиль 0 н/о н/о +9.2 +0.9 56 +9 +9 1022.6 1017.9
14 18.07 штиль 0 н/о н/о +8.8 +0.8 57 +8 +8 1022.4 1017.7 +19.6
15 18.07 штиль 0 н/о н/о +7.2 -0.3 59 +7 +7 1022.3 1017.6
16 18.07 СВ 1 н/о н/о +6.3 +0.2 65 +7 +7 1022.0 1017.3
17 18.07 штиль 0 н/о н/о +4.1 -3.4 58 +4 +4 1022.0 1017.3
18 18.07 штиль 0 н/о н/о +4.9 -1.3 64 +4 +4 1021.7 1017.0
19 18.07 З 2 н/о н/о +5.0 0.0 70 +3 +3 1021.9 1017.2
20 18.07 З 1 7000 м н/о +3.7 -1.6 68 +4 +4 1022.2 1017.5
21 18.07 СВ 1 н/о н/о +3.5 -0.9 73 +2 +2 1022.5 1017.8
22 18.07 СВ 2 н/о н/о +4.1 -2.3 63 +2 +2 1022.9 1018.2
23 18.07 штиль 0 н/о н/о +8.8 +0.3 55 +8 +8 1023.3 1018.6
00 19.07 В 2 н/о н/о +12.2 +0.6 45 +12 +12 1023.6 1018.9
01 19.07 В 2 н/о н/о +15.5 +2.0 40 +16 +16 1023.6 1018.9
02 19.07 ЮВ 3 н/о н/о +16.9 +1.8 36 +17 +17 1022.7 1018.0 +2.8
03 19.07 СВ 3 н/о н/о +18.3 +0.9 31 +19 +19 1021.6 1016.9
04 19.07 В 3 н/о н/о +19.1 +0.2 28 +19 +19 1020.8 1016.1
05 19.07 СЗ 1 н/о н/о +19.8 +0.8 28 +21 +21 комфорт 1020.4 1015.8
06 19.07 В 2 н/о н/о +20.3 -0.3 25 +21 +21 комфорт 1020.0 1015.4
07 19.07 Ю 1 н/о н/о +19.5 -0.5 26 +21 +21 комфорт 1020.2 1015.6
08 19.07 ЮВ 1 8000 м н/о +18.2 -1.1 27 +19 +19 1020.2 1015.6
09 19.07 ЮВ 1 н/о н/о +15.0 -1.1 33 +16 +16 1020.6 1016.0
10 19.07 В 2 н/о н/о +13.5 -1.6 35 +14 +14 1020.9 1016.2
11 19.07 ЮВ 1 н/о н/о +12.0 -1.2 40 +12 +12 1020.9 1016.2
12 19.07 ЮВ 2 н/о н/о +10.7 -2.3 40 +10 +10 1021.0 1016.3
13 19.07 штиль 0 н/о н/о +9.1 -3.1 42 +9 +9 1021.3 1016.6
14 19.07 штиль 0 н/о н/о +8.4 -2.8 45 +8 +8 1021.1 1016.4 +20.6
15 19.07 В 3 н/о н/о +7.3 -3.8 45 +5 +5 1020.6 1016.0
16 19.07 В 3 н/о н/о +7.6 -3.9 44 +5 +5 1020.3 1015.7
17 19.07 В 3 н/о н/о +6.6 -4.5 45 +4 +4 1020.0 1015.4
18 19.07 В 3 н/о н/о +5.3 -5.4 46 +3 +3 1019.5 1014.9
19 19.07 СВ 3 н/о н/о +7.3 -2.7 49 +5 +5 1019.3 1014.7
20 19.07 СВ 4 н/о н/о +6.8 -2.9 50 +4 +4 1019.3 1014.7
21 19.07 СВ 3 н/о н/о +6.4 -3.2 50 +4 +4 1019.5 1014.9
22 19.07 СВ 4 н/о н/о +7.3 -2.4 50 +5 +5 1019.9 1015.3
23 19.07 СВ 3 н/о н/о +10.3 -1.4 44 +9 +9 1020.1 1015.5
00 20.07 СВ 5 н/о н/о +14.1 -0.7 36 +13 +13 1020.5 1015.9
01 20.07 С 6 н/о н/о +17.5 +0.6 32 +17 +17 1020.0 1015.4
02 20.07 С 7 н/о н/о +20.6 -0.1 25 +20 +20 1018.9 1014.3 +5.0
03 20.07 С 8 н/о н/о +21.9 -0.8 22 +21 +21 комфорт 1017.8 1013.2
04 20.07 С 7 н/о н/о +22.0 -0.1 23 +21 +21 комфорт 1016.7 1012.1
05 20.07 С 7 н/о н/о +22.7 -0.7 21 +22 +22 комфорт 1016.0 1011.4
06 20.07 С 7 н/о н/о +22.7 -1.4 20 +22 +22 комфорт 1015.6 1011.0
07 20.07 СЗ 6 н/о н/о +22.5 -1.6 20 +21 +21 комфорт 1015.5 1010.9
08 20.07 С 4 н/о н/о +19.7 -2.6 22 +20 +20 1015.6 1011.0
09 20.07 С 4 н/о н/о +16.2 -2.8 27 +16 +16 1015.1 1010.5
10 20.07 С 4 н/о н/о +14.0 -3.3 30 +13 +13 1015.6 1011.0
11 20.07 С 4 н/о н/о +12.6 -3.6 32 +11 +11 1016.2 1011.6
12 20.07 С 3 н/о н/о +11.5 -3.0 36 +10 +10 1015.9 1011.3
13 20.07 С 5 н/о н/о +11.4 -2.8 37 +9 +9 1015.7 1011.1
14 20.07 С 5 н/о н/о +10.1 -3.6 38 +8 +8 1015.2 1010.6 +23.2
15 20.07 С 6 н/о н/о +11.1 -3.0 37 +9 +9 1014.3 1009.7
16 20.07 С 5 н/о н/о +9.8 -3.5 39 +7 +7 1013.8 1009.2
17 20.07 С 5 н/о н/о +10.4 -3.6 37 +8 +8 1013.7 1009.1
18 20.07 С 5 н/о н/о +8.9 -4.3 39 +6 +6 1013.4 1008.8
19 20.07 С 5 н/о н/о +7.7 -4.1 43 +4 +4 1013.4 1008.8
20 20.07 С 5 н/о н/о +7.5 -4.6 42 +4 +4 1013.8 1009.2
21 20.07 С 3 н/о н/о +6.7 -4.4 45 +5 +5 1014.8 1010.2
22 20.07 З 4 н/о н/о +5.8 -4.9 46 +3 +3 1016.7 1012.1
23 20.07 штиль 0 н/о 10/0
[]
+10.6 -3.5 37 +11 +11 1016.5 1011.9
00 21.07 С 3 н/о н/о +14.3 -2.6 31 +14 +14 1016.4 1011.8
01 21.07 С 6 н/о н/о +18.6 -3.5 22 +18 +18 1015.9 1011.3
02 21.07 СЗ 7 н/о 6/0
[]
+21.0 -4.2 18 +20 +20 1015.3 1010.7 +5.5
03 21.07 З 6 н/о н/о +21.3 -3.2 19 +20 +20 1014.6 1010.0
04 21.07 З 5 н/о н/о +21.9 -3.5 18 +21 +21 комфорт 1013.7 1009.1
05 21.07 З 5 н/о 8/0
[]
+21.6 -1.6 21 +21 +21 комфорт 1013.5 1008.9
06 21.07 ЮЗ 5 н/о н/о +21.8 -0.2 23 +21 +21 комфорт 1013.6 1009.0
07 21.07 ЮЗ 6 н/о н/о +21.4 +1.1 26 +21 +21 комфорт 1014.1 1009.5
08 21.07 ЮЗ 3 н/о н/о +19.9 +1.8 30 +20 +20 1014.2 1009.6
09 21.07 ЮЗ 3 н/о н/о +16.4 +0.5 34 +16 +16 1015.0 1010.4
10 21.07 ЮЗ 3 н/о н/о +14.8 +0.6 38 +14 +14 1015.7 1011.1
11 21.07 ЮЗ 4 н/о н/о +13.8 +0.5 40 +13 +13 1016.4 1011.8
12 21.07 ЮЗ 3 н/о н/о +11.8 -1.0 41 +11 +11 1016.7 1012.1
13 21.07 ЮЗ 3 н/о н/о +10.8 -0.9 44 +10 +10 1017.0 1012.4
14 21.07 ЮЗ 3 н/о н/о +10.3 -0.8 46 +9 +9 1017.1 1012.5 +22.6
15 21.07 ЮЗ 2 н/о н/о +9.1 -1.6 47 +8 +8 1016.8 1012.2
16 21.07 ЮЗ 3 н/о н/о +8.4 -1.7 49 +7 +7 1016.9 1012.3
17 21.07 ЮЗ 3 н/о н/о +7.9 -0.8 54 +6 +6 1016.8 1012.2
18 21.07 Ю 2 н/о н/о +6.9 -1.3 56 +6 +6 1016.6 1012.0
19 21.07 Ю 2 н/о н/о +6.8 -0.2 61 +5 +5 1016.9 1012.3
20 21.07 Ю 3 н/о н/о +6.7 +0.2 63 +4 +4 1017.1 1012.5
21 21.07 Ю 3 н/о н/о +4.8 -1.8 62 +2 +2 1017.8 1013.2
22 21.07 Ю 2 н/о н/о +4.7 -1.7 63 +2 +2 1018.4 1013.8
23 21.07 штиль 0 н/о н/о +8.3 -0.4 54 +8 +8 1019.0 1014.4
00 22.07 штиль 0 н/о н/о +12.5 -0.7 40 +12 +12 1019.5 1014.9
01 22.07 В 1 н/о н/о +16.7 +0.4 33 +18 +18 1019.1 1014.5
02 22.07 В 3 н/о н/о +18.1 +0.7 31 +18 +18 1018.5 1013.9 +4.3
03 22.07 Ю 2 н/о н/о +19.4 +1.9 31 +20 +20 1017.7 1013.1
04 22.07 Ю 1 н/о н/о +20.2 +1.1 28 +21 +21 комфорт 1016.8 1012.2
05 22.07 З 2 н/о н/о +20.7 +0.5 26 +21 +21 комфорт 1016.6 1012.0
06 22.07 З 3 н/о н/о +20.6 +0.4 26 +21 +21 комфорт 1016.4 1011.8
07 22.07 З 2 н/о н/о +20.5 -0.2 25 +21 +21 комфорт 1016.5 1011.9
08 22.07 З 2 н/о н/о +18.8 -0.6 27 +19 +19 1016.8 1012.2
09 22.07 З 2 н/о н/о +13.8 -3.5 30 +14 +14 1017.4 1012.8
10 22.07 З 2 н/о н/о +12.6 -2.8 34 +12 +12 1018.2 1013.6
11 22.07 З 2 н/о н/о +12.1 -2.1 37 +12 +12 1018.8 1014.2
12 22.07 штиль 0 н/о н/о +10.9 -2.1 40 +11 +11 1018.9 1014.3
13 22.07 С 2 н/о н/о +9.7 -2.3 43 +9 +9 1018.7 1014.1
14 22.07 С 2 н/о н/о +7.9 -4.2 42 +7 +7 1018.6 1014.0 +21.1
15 22.07 С 3 н/о н/о +9.2 -1.8 46 +8 +8 1018.7 1014.1
16 22.07 СЗ 2 н/о н/о +7.8 -3.1 46 +7 +7 1019.0 1014.4
17 22.07 З 3 н/о н/о +6.9 -3.9 46 +5 +5 1019.3 1014.7
18 22.07 С 3 н/о н/о +6.6 -3.6 48 +4 +4 1019.3 1014.7
19 22.07 С 3 н/о н/о +5.8 -4.1 49 +3 +3 1019.5 1014.9
20 22.07 С 3 н/о н/о +4.4 -5.4 49 +2 +2 1019.9 1015.3
21 22.07 С 4 н/о н/о +5.6 -4.3 49 +3 +3 1020.8 1016.1
22 22.07 С 3 н/о н/о +6.8 -4.0 46 +4 +4 1021.8 1017.1
23 22.07 С 2 н/о н/о +10.3 -3.7 37 +10 +10 1022.3 1017.6
00 23.07 СЗ 3 н/о н/о +15.4 -3.0 28 +15 +15 1022.8 1018.1
01 23.07 СЗ 5 н/о н/о +18.3 -2.0 25 +18 +18 1022.8 1018.1
02 23.07 З 5 н/о н/о +20.3 -2.7 21 +20 +20 1022.4 1017.7 +4.5
03 23.07 З 6 н/о н/о +21.7 -2.9 19 +21 +21 комфорт 1021.9 1017.2
04 23.07 З 5 н/о н/о +22.5 -3.0 18 +21 +21 комфорт 1021.3 1016.6
05 23.07 З 5 н/о н/о +22.8 -2.7 18 +21 +21 комфорт 1021.0 1016.3
06 23.07 З 5 н/о н/о +23.2 -3.2 17 +22 +22 комфорт 1020.9 1016.2
07 23.07 З 5 н/о н/о +23.0 -2.6 18 +22 +22 комфорт 1021.0 1016.3
08 23.07 ЮЗ 4 н/о н/о +20.6 -3.1 20 +21 +21 комфорт 1021.4 1016.7
09 23.07 З 3 н/о н/о +17.7 -3.1 24 +18 +18 1022.1 1017.4
10 23.07 З 2 н/о н/о +16.0 -3.0 27 +16 +16 1023.1 1018.4
11 23.07 З 3 н/о н/о +14.5 -2.0 32 +14 +14 1023.5 1018.8
12 23.07 З 3 н/о н/о +12.8 -1.9 36 +12 +12 1023.9 1019.2
13 23.07 ЮЗ 3 н/о н/о +11.9 -0.9 41 +11 +11 1024.0 1019.3
14 23.07 ЮЗ 3 н/о н/о +12.1 +1.1 47 +11 +11 1023.9 1019.2 +23.7
15 23.07 ЮЗ 3 н/о н/о +11.7 +1.9 51 +11 +11 1023.8 1019.1
16 23.07 ЮЗ 3 н/о н/о +10.1 +1.2 54 +9 +9 1024.1 1019.4
17 23.07 З 3 н/о н/о +9.2 +1.1 57 +7 +7 1023.9 1019.2
18 23.07 ЮЗ 2 н/о н/о +9.2 +1.6 59 +8 +8 1024.0 1019.3
19 23.07 ЮЗ 3 н/о н/о +8.3 +1.2 61 +6 +6 1024.3 1019.6
22 23.07 штиль 0 н/о н/о +6.4 -0.8 60 +6 +6 1026.1 1021.4
23 23.07 ЮЗ 2 н/о н/о +9.9 +1.5 56 +9 +9 1027.3 1022.6
00 24.07 Ю 2 н/о н/о +13.8 +2.1 45 +13 +13 1027.6 1022.9
01 24.07 В 4 н/о н/о +17.2 +4.5 43 +17 +17 1027.4 1022.7
02 24.07 ЮВ 5 н/о н/о +18.7 +4.8 40 +19 +19 1026.7 1022.0 +5.5
03 24.07 Ю 4 н/о н/о +19.8 +5.1 38 +20 +20 1025.9 1021.2
04 24.07 Ю 4 н/о н/о +20.4 +5.2 37 +21 +21 комфорт 1024.9 1020.2

 

Местоположение метеостанции Мумба (Южная Австралия, Австралия): широта -28.10 долгота 140.20 высота над уровнем моря 38 м.

В архиве по умолчанию представлена погода в Мумбе за последнюю неделю. Архивные данные за месяц целиком и за предыдущие месяцы, начиная с января 2011 года, Вы можете получить, выбрав интересующий диапазон дат из раскрывающегося списка и нажав кнопку "Ввод!".


*Определитесь, кто Вы:
робот инопланетянин человек

Внимание! Время в таблицах - всемирное. Для получения местного времени необходимо прибавить поправку, которая равна 9.5 ч.

Смотрите также архив погоды в соседних городах и на ближайших метеорологических станциях:

Погода в Месторождении Ballera (Квинсленд, Австралия) (176 км)
Погода в Тибообере (Новый Южный Уэльс, Австралия) (235 км)
Погода в Бердсвилле (Квинсленд, Австралия) (259 км)
Погода в Марри (Южная Австралия, Австралия) (271 км)
Погода в Ли-Крике (Южная Австралия, Австралия) (327 км)
Погода в Таргоминде (Квинсленд, Австралия) (355 км)
Погода в Фоулерс Гэп (Новый Южный Уэльс, Австралия) (362 км)
Погода в Уафт Клифс (Новый Южный Уэльс, Австралия) (413 км)
Погода в Олимпик Дэм (Южная Австралия, Австралия) (417 км)
Погода в Брокен-Хилл аэропорту (Новый Южный Уэльс, Австралия) (450 км)

Пояснения к столбцам:

Ветер - указаны скорость ветра в м/с - средняя за 10 мин, порывы в срок и между сроками (в фигурных скобках) и направление, откуда дует ветер: С - северный, СВ - северо-восточный, В - восточный, ЮВ - юго-восточный, Ю - южный, ЮЗ - юго-западный, З - западный, СЗ - северо-западный.
Видимость - горизонтальная дальность видимости в метрах или километрах. При видимости от 1 до 10 км при отсутствии осадков обычно наблюдается дымка, при ухудшении видимости до 1 км и менее - туман. В сухую погоду видимость может ухудшаться дымом, пылью или мглою.
Явления - указаны атмосферные явления, наблюдавшиеся в срок или в последний час перед сроком; фигурными скобками обозначены явления, наблюдавшиеся между сроками (за 1-3 часа до срока); квадратными скобками обозначены град или гололедные отложения с указанием их диаметра в мм.
Облачность - указаны через наклонную черту общая и нижняя облачность в баллах и высота нижней границы облаков в метрах; квадратными скобками обозначены формы облаков: Ci - перистые, Cs - перисто-слоистые, Cc - перисто-кучевые, Ac - высококучевые, As - высокослоистые, Sc - слоисто-кучевые, Ns - слоисто-дождевые, Cu - кучевые, Cb - кучево-дождевые. Подробнее классификацию облаков см. в Атласе облаков (PDF).
T - Температура воздуха - температура, измеренная на высоте 2 м над землей.
Td - Температура точки росы - температура, при понижении до которой содержащийся в воздухе водяной пар достигнет насыщения.
f - Относительная влажность воздуха - влажноcть воздуха, измеренная на высоте 2 м над землей.
Te - Эффективная температура - температура, которую ощущает одетый по сезону человек в тени. Характеристика душности погоды. При расчете учитывается влияние влажности воздуха и скорости ветра на теплоощущения человека.
Tes - Эффективная температура на солнце - температура, которую ощущает человек, с поправкой на солнечный нагрев. Характеристика знойности погоды. Зависит от высоты солнца над горизонтом, облачности и скорости ветра. Ночью, в пасмурную погоду, а также при ветре 12 м/с и более поправка равна нулю.
P - Атмосферное давление - приведенное к уровню моря атмосферное давление.
Po - Атмосферное давление - измеренное на уровне метеостанции атмосферное давление.
Tmin - Минимальная температура - минимум температуры воздуха на высоте 2 м над землей.
Tmax - Максимальная температура - максимум температуры воздуха на высоте 2 м над землей.
R - Количество осадков - Количество выпавших осадков за период времени, мм. При наведении курсора мыши на число - период времени, за который выпало указанное количество осадков.
R24 - Количество осадков - Количество выпавших осадков за 24 часа, мм.
S - Снежный покров - Высота снежного покрова, см. При наведении курсора мыши на число - состояние снежного покрова и степень покрытия местности в баллах.